Regional Weather Roundup
Issued by NWS Newport/Morehead, NC

Current Version | Previous Version | Graphics & Text | Print | Product List | Glossary Off
Versions: 1 2 3 4 5 6 7 8 9 10 11 12 13 14 15 16 17 18 19 20 21 22 23 24 25 26 27 28 29 30 31 32 33 34 35 36 37 38 39 40 41 42 43 44 45 46

000
ASUS42 KMHX 200426
RWRMHX
WEATHER ROUNDUP FOR EASTERN NORTH CAROLINA
NATIONAL WEATHER SERVICE NEWPORT/MOREHEAD CITY NC
1200 AM EDT SUN AUG 20 2017

NOTE: "FAIR" INDICATES FEW OR NO CLOUDS BELOW 12,000 FEET
WITH NO SIGNIFICANT WEATHER AND/OR OBSTRUCTIONS TO VISIBILITY

NCZ015>017-031-032-045>047-102-103-200500-
NORTH COAST

CITY           SKY/WX    TMP DP  RH WIND       PRES   REMARKS
EDENTON        CLEAR     78  74  85 CALM      29.99S
ELIZABETH CITY CLEAR     75  75 100 SW3       29.98R
KITTY HAWK     PTCLDY    77  75  94 CALM      29.98R
MANTEO         PTCLDY    78  75  92 W3        29.99S

$$

NCZ045>047-081-094-103-104-200500-
CENTRAL COAST

CITY           SKY/WX    TMP DP  RH WIND       PRES   REMARKS
FRISCO         PTCLDY    79  78  97 SW8       29.98F

$$

NCZ095-097-098-100-101-200500-
SOUTHERN COAST

CITY           SKY/WX    TMP DP  RH WIND       PRES   REMARKS
BEAUFORT       CLEAR     79  78  97 CALM      30.00R
CEDAR ISLAND   NOT AVBL
JACKSONVILLE   CLEAR     74  74 100 CALM      29.99R
PINEY ISLAND   CLEAR    N/A N/A N/A S5        29.99R
WILMINGTON     PTCLDY    76  75  97 E3        29.99R


$$

NCZ011>013-027>030-043-044-078>080-089-090>093-098-200500-
COASTAL PLAIN

CITY           SKY/WX    TMP DP  RH WIND       PRES   REMARKS
AHOSKIE          N/A     73  73  99 CALM      29.99R
CLINTON        CLEAR     74  74 100 CALM      30.00R
ELIZABETHTOWN  NOT AVBL
GOLDSBORO      CLEAR     75  75 100 CALM      29.98S
GREENVILLE     CLEAR     73  73 100 CALM      30.01R
HAVELOCK       CLEAR     74  73  97 S5        30.00R
KENANSVILLE    CLEAR     72  72 100 CALM      30.00R FOG
KINSTON        CLEAR     73  72  96 S3        30.00R
NEW BERN       FOG       73  73 100 CALM      30.01R VSB 3/4
RICHLANDS      PTCLDY    73  73 100 CALM      30.00R FOG
ROCKY MOUNT    CLEAR     74  74 100 CALM      30.00R
WASHINGTON     CLEAR     74  73  95 SW3       29.99S
WHITEVILLE     CLEAR     76  74  96 CALM      29.99R

$$

AMZ130-135-150-152-154-156-158-170-250-252-270-ANZ085-086-088-633-658-670-200500-
MARINE OBSERVATIONS

STATION/POSITION TIME  TEMP    WIND        PRES    WAVE   SWELL
                       AIR SEA DIR/SP/G            HT/PER HT/PER
                 (UTC) (F)     (DEG/KT/KT) (MB)    (FT/S) (FT/S)
CHESAPEAKE LIGHT NOT AVBL
64 E VA BEACH    0350   79 79  210/  4/  6 1015.4    3/ 6   3/ 6
DUCK             0400   80 69  210/ 10/ 12 1014.8
2 E DUCK         0300      78                N/A     1/ 8
OREGON INLET     0400   80 78  200/  8/ 10 1015.2
13E OREGON INLT  0348      80                N/A     2/ 6   2/ 6
HATTERAS CG      0400   78 80  210/  4/  5 1015.5
DIAMOND BUOY     0350   83 83  210/ 12/ 14 1015.3    3/ 9   2/ 9
CAPE LOOKOUT     0400   81     220/  5/  6 1015.6
BEAUFORT LAB     0400   80 82  340/  2/  3 1015.4
30 SE NEW RVR IN 0408   81 84  230/ 10/ 14 1015.8
30 SE NEW RVR IN 0413      83                N/A     3/ 6
27 SE WRIGHTSVLE 0408   83 84  190/ 10/ 14 1015.6
5 SE WRIGHTSVLE  0308   82 83  200/  6/ 10 1015.0
225 S CAPE HAT   0350   83 84  180/ 14/ 16 1017.6    4/ 6   3/ 8
41 SE CHARLESTON 0410   84 84  200/ 14/ 16 1015.3

$$




USA.gov is the U.S. government's official web portal to all federal, state and local government web resources and services.